Regional Weather Roundup
Issued by NWS

Home | Current Version | Previous Version | Text Only | Print | Product List | Glossary On
Versions: 1 2 3 4 5 6 7 8 9 10 11 12 13 14 15 16 17 18 19 20 21 22 23 24 25 26 27 28 29 30 31 32 33 34 35 36 37 38 39 40 41 42 43 44 45 46 47 48 49 50
000
ASCA44 KEWX 281120
RWRMX

LATIN AMERICA AND CARIBBEAN REGIONAL WEATHER ROUNDUP
NATIONAL WEATHER SERVICE AUSTIN/SAN ANTONIO TX
600 AM CDT THU AUG 28 2014

NOTE: "FAIR" INDICATED FEW OR NO CLOUDS BELOW 12,000 FEET WITH NO
SIGNIFICANT WEATHER AND/OR OBSTRUCTIONS TO VISIBILITY.

BAJA CALIFORNIA

CITY           SKY/WX    TMP DP  RH WIND       PRES   REMARKS
TIJUANA        CLEAR     70  48  46 CALM      30.02F

NORTHWESTERN MEXICO

CITY           SKY/WX    TMP DP  RH WIND       PRES   REMARKS
DURANGO        CLEAR     57  46  67 W3        30.24F
HERMOSILLO     CLEAR     86  64  48 CALM      29.84
LOS MOCHIS     MOCLDY    86  75  70 W5        29.79  HX  95
OBREGON        CLEAR     79  73  83 CALM      29.75

NORTHEASTERN MEXICO

CITY           SKY/WX    TMP DP  RH WIND       PRES   REMARKS
CHIHUAHUA      PTCLDY    63  59  88 S5        30.15
MONTERREY      CLEAR     77  68  73 CALM      29.93S
REYNOSA        PTCLDY    79  72  78 W3        29.85
SALTILLO       CLEAR     66  57  72 CALM      30.16
TORREON        CLEAR     75  57  53 CALM      30.06S
CD. VICTORIA   CLEAR     77  68  73 SE5       29.89

WESTERN MEXICO

CITY           SKY/WX    TMP DP  RH WIND       PRES   REMARKS
AGUASCALIENTES PTCLDY    55  52  88 N6        30.27
COLIMA         MOCLDY    73  63  68 CALM      29.97
DEL BAJIO      CLEAR     57  50  77 CALM      30.27F
GUADALAJARA    CLEAR     61  57  88 CALM      30.15
MAZATLAN       CLOUDY    79  77  94 CALM      29.80R
P. VALLARTA    MOCLDY    82  77  83 CALM      29.85S HX  91
ZACATECAS      CLEAR     52  41  66 W5        30.29S

CENTRAL MEXICO

CITY           SKY/WX    TMP DP  RH WIND       PRES   REMARKS
MEXICO CITY    CLEAR     59  46  63 NE6       30.32F
MORELIA        CLEAR     52  52 100 CALM      30.20
PUEBLA         CLEAR     48  46  93 N7        30.34  WCI  45
QUERETARO      PTCLDY    54  48  82 E5        30.30F
S. LUIS POTOSI PTCLDY    61  54  77 N5        30.25S
TAMPICO        CLEAR     79  75  89 CALM      29.87
TOLUCA         CLEAR     48  43  81 W5        30.37F WCI  46

SOUTHERN MEXICO

CITY           SKY/WX    TMP DP  RH WIND       PRES   REMARKS
ACAPULCO       PTCLDY    81  77  89 N5        29.83F
OAXACA         CLEAR     59  55  88 E5        30.18
VERACRUZ       PTCLDY    75  73  94 CALM      29.87

YUCATAN PENINSULA

CITY           SKY/WX    TMP DP  RH WIND       PRES   REMARKS
CAMPECHE       CLEAR     77  77 100 CALM      29.82S
CANCUN         PTCLDY    77  75  94 CALM      29.86R
CHETUMAL       CLEAR     77  72  83 CALM      29.83
CD. DEL CARMEN PTCLDY    81  75  83 S7        29.84
COZUMEL        PTCLDY    73  73 100 CALM      29.86S
MERIDA         CLEAR     75  75 100 CALM      29.83F
MINATITLAN     CLEAR     77  66  69 SW6       29.85
TAPACHULA      MOCLDY    75  73  94 CALM      29.87S
TUX. GUTIERREZ PTCLDY    73  68  83 W6        29.91
VILLAHERMOSA   PTCLDY    75  72  88 CALM      29.89R

CENTRAL AMERICA

CITY           SKY/WX    TMP DP  RH WIND       PRES   REMARKS
BELIZE CITY    PTCLDY    77  75  94 CALM      29.83
MANAGUA        MOSUNNY   75  75 100 CALM      29.83S

CARIBBEAN

CITY           SKY/WX    TMP DP  RH WIND       PRES   REMARKS
ARUBA          PTCLDY    81  75  83 E8        29.86R
CURACAO        PTCLDY    81  77  89 SE3       29.86S
KINGSTON       PTCLDY    82  73  74 N10       29.92S
NASSAU         MOCLDY    82  75  78 S6        29.99R
SAN JUAN       PTSUNNY   82  77  83 E12       29.98R HX  91
SANTO DOMINGO  PTCLDY    77  73  88 N6        29.94S
ST. CROIX      MOSUNNY   82  73  74 E15       29.97R
ST. KITTS      MOSUNNY   79  75  89 N7        29.97S
ST. MAARTEN    MOSUNNY   82  73  74 E13       29.97R

$$



USA.gov is the U.S. government's official web portal to all federal, state and local government web resources and services.